Location: Delmar
(42.6220°N, 73.8326°W)
Time: 05:00:43
(UTC+00:00)

SeaSat 1 - Pass Details

Date: 29 October 2020
Orbit: 744 x 747 km, 108.0° (Epoch: 27 November)

Event Time Altitude Azimuth Distance (km) Brightness Sun altitude
Exits shadow 23:00:00 15° 54° (NE) 1,950 4.1 -13.1°
Maximum altitude 23:00:40 15° 45° (NE) 1,929 4.1 -13.3°
Drops below altitude 10° 23:03:26 10° 10° (N) 2,272 4.8 -13.8°
Sets 23:06:36 0° 349° (N) 3,201 5.8 -14.4°
